Time,TemperatureF,DewpointF,PressureIn,WindDirection,WindDirectionDegrees,WindSpeedMPH,WindSpeedGustMPH,Humidity,HourlyPrecipIn,Conditions,Clouds,dailyrainin,SoftwareType,DateUTC
2013-01-13 00:04:00,35.8,35.0,30.11,WNW,287,0.0,0.0,98,0.00,,,0.00,weatherlink.com 1.10,2013-01-13 05:04:00,
2013-01-13 00:19:00,35.4,35.0,30.11,WNW,287,2.0,2.0,98,0.00,,,0.00,weatherlink.com 1.10,2013-01-13 05:19:00,
2013-01-13 00:34:00,35.6,35.0,30.11,WNW,287,0.0,0.0,98,0.00,,,0.00,weatherlink.com 1.10,2013-01-13 05:34:00,
2013-01-13 00:49:00,35.7,35.0,30.11,WNW,287,0.0,1.0,98,0.00,,,0.00,weatherlink.com 1.10,2013-01-13 05:49:00,
2013-01-13 01:04:00,35.6,35.0,30.11,WNW,287,0.0,2.0,98,0.00,,,0.00,weatherlink.com 1.10,2013-01-13 06:04:00,
2013-01-13 01:19:00,35.6,35.0,30.10,WNW,287,0.0,1.0,98,0.00,,,0.00,weatherlink.com 1.10,2013-01-13 06:19:00,
2013-01-13 01:34:00,35.5,35.0,30.11,WNW,287,0.0,2.0,98,0.00,,,0.00,weatherlink.com 1.10,2013-01-13 06:34:00,
2013-01-13 01:49:00,36.0,36.0,30.11,WNW,287,0.0,2.0,98,0.00,,,0.00,weatherlink.com 1.10,2013-01-13 06:49:00,
2013-01-13 02:04:00,35.8,35.0,30.12,WNW,287,1.0,2.0,98,0.00,,,0.00,weatherlink.com 1.10,2013-01-13 07:04:00,
2013-01-13 02:19:00,35.4,35.0,30.11,WNW,287,0.0,2.0,98,0.00,,,0.00,weatherlink.com 1.10,2013-01-13 07:19:00,
2013-01-13 02:34:00,35.4,35.0,30.11,WNW,287,1.0,1.0,98,0.00,,,0.00,weatherlink.com 1.10,2013-01-13 07:34:00,
2013-01-13 02:49:00,35.3,35.0,30.11,WNW,287,1.0,2.0,98,0.00,,,0.00,weatherlink.com 1.10,2013-01-13 07:49:00,
2013-01-13 03:05:00,35.2,35.0,30.12,WNW,287,1.0,2.0,98,0.00,,,0.00,weatherlink.com 1.10,2013-01-13 08:05:00,
2013-01-13 03:20:00,35.5,35.0,30.11,NNW,348,3.0,4.0,98,0.00,,,0.00,weatherlink.com 1.10,2013-01-13 08:20:00,
2013-01-13 03:35:00,35.4,35.0,30.11,NNW,342,1.0,3.0,98,0.00,,,0.00,weatherlink.com 1.10,2013-01-13 08:35:00,
2013-01-13 03:50:00,35.5,35.0,30.10,NNW,342,0.0,1.0,98,0.00,,,0.00,weatherlink.com 1.10,2013-01-13 08:50:00,
2013-01-13 04:04:00,34.7,34.0,30.11,NNW,342,1.0,2.0,98,0.00,,,0.00,weatherlink.com 1.10,2013-01-13 09:04:00,
2013-01-13 04:19:00,35.0,35.0,30.09,North,350,0.0,2.0,98,0.00,,,0.00,weatherlink.com 1.10,2013-01-13 09:19:00,
2013-01-13 04:34:00,34.8,34.0,30.10,NNW,340,2.0,3.0,98,0.00,,,0.00,weatherlink.com 1.10,2013-01-13 09:34:00,
2013-01-13 04:49:00,35.5,35.0,30.08,NNW,336,1.0,2.0,98,0.00,,,0.00,weatherlink.com 1.10,2013-01-13 09:49:00,
2013-01-13 05:04:00,35.0,35.0,30.09,NNW,336,0.0,2.0,98,0.00,,,0.00,weatherlink.com 1.10,2013-01-13 10:04:00,
2013-01-13 05:19:00,35.2,35.0,30.08,NNW,336,0.0,0.0,98,0.00,,,0.00,weatherlink.com 1.10,2013-01-13 10:19:00,
2013-01-13 05:34:00,35.1,35.0,30.09,NW,323,0.0,2.0,98,0.00,,,0.00,weatherlink.com 1.10,2013-01-13 10:34:00,
2013-01-13 05:49:00,35.1,35.0,30.09,NW,323,1.0,1.0,98,0.00,,,0.00,weatherlink.com 1.10,2013-01-13 10:49:00,
2013-01-13 06:05:00,35.0,35.0,30.08,NW,323,0.0,0.0,98,0.00,,,0.00,weatherlink.com 1.10,2013-01-13 11:05:00,
2013-01-13 06:20:00,35.2,35.0,30.08,NW,323,0.0,1.0,98,0.00,,,0.00,weatherlink.com 1.10,2013-01-13 11:20:00,
2013-01-13 06:35:00,34.7,34.0,30.10,NW,323,1.0,1.0,98,0.00,,,0.00,weatherlink.com 1.10,2013-01-13 11:35:00,
2013-01-13 06:50:00,34.9,34.0,30.09,NW,323,0.0,0.0,98,0.00,,,0.00,weatherlink.com 1.10,2013-01-13 11:50:00,
2013-01-13 07:05:00,34.8,34.0,30.09,NW,323,0.0,1.0,98,0.00,,,0.00,weatherlink.com 1.10,2013-01-13 12:05:00,
2013-01-13 07:20:00,34.7,34.0,30.09,NW,323,0.0,1.0,98,0.00,,,0.00,weatherlink.com 1.10,2013-01-13 12:20:00,
2013-01-13 07:35:00,34.5,34.0,30.11,NW,323,0.0,1.0,98,0.00,,,0.00,weatherlink.com 1.10,2013-01-13 12:35:00,
2013-01-13 07:50:00,34.7,34.0,30.13,NW,318,0.0,4.0,98,0.00,,,0.00,weatherlink.com 1.10,2013-01-13 12:50:00,
2013-01-13 08:05:00,34.9,34.0,30.12,NW,318,0.0,1.0,98,0.00,,,0.00,weatherlink.com 1.10,2013-01-13 13:05:00,
2013-01-13 08:20:00,35.2,35.0,30.12,NW,318,1.0,2.0,98,0.00,,,0.00,weatherlink.com 1.10,2013-01-13 13:20:00,
2013-01-13 08:35:00,35.0,35.0,30.11,NW,318,0.0,1.0,98,0.00,,,0.00,weatherlink.com 1.10,2013-01-13 13:35:00,
2013-01-13 08:50:00,35.3,35.0,30.12,NW,318,0.0,1.0,99,0.00,,,0.00,weatherlink.com 1.10,2013-01-13 13:50:00,
2013-01-13 09:05:00,35.6,35.0,30.13,NW,318,0.0,0.0,98,0.00,,,0.00,weatherlink.com 1.10,2013-01-13 14:05:00,
2013-01-13 09:20:00,36.3,36.0,30.13,NW,318,0.0,1.0,98,0.00,,,0.00,weatherlink.com 1.10,2013-01-13 14:20:00,
2013-01-13 09:35:00,36.3,36.0,30.12,NW,318,0.0,2.0,99,0.00,,,0.00,weatherlink.com 1.10,2013-01-13 14:35:00,
2013-01-13 09:50:00,36.7,37.0,30.13,NW,318,0.0,0.0,99,0.00,,,0.00,weatherlink.com 1.10,2013-01-13 14:50:00,
2013-01-13 10:05:00,37.3,37.0,30.13,NW,318,0.0,2.0,99,0.00,,,0.00,weatherlink.com 1.10,2013-01-13 15:05:00,
2013-01-13 10:20:00,37.7,38.0,30.12,ENE,67,0.0,2.0,99,0.00,,,0.00,weatherlink.com 1.10,2013-01-13 15:20:00,
2013-01-13 10:35:00,37.8,37.0,30.12,SE,144,0.0,2.0,98,0.00,,,0.00,weatherlink.com 1.10,2013-01-13 15:35:00,
2013-01-13 10:50:00,38.0,38.0,30.11,SE,144,0.0,2.0,99,0.00,,,0.00,weatherlink.com 1.10,2013-01-13 15:50:00,
2013-01-13 11:06:00,38.2,38.0,30.10,SE,144,0.0,2.0,99,0.00,,,0.00,weatherlink.com 1.10,2013-01-13 16:06:00,
2013-01-13 11:21:00,38.3,38.0,30.09,SE,144,0.0,1.0,98,0.00,,,0.00,weatherlink.com 1.10,2013-01-13 16:21:00,
2013-01-13 11:36:00,38.6,38.0,30.09,SE,144,0.0,2.0,98,0.00,,,0.00,weatherlink.com 1.10,2013-01-13 16:36:00,
2013-01-13 11:51:00,38.9,38.0,30.07,SE,144,0.0,3.0,98,0.00,,,0.00,weatherlink.com 1.10,2013-01-13 16:51:00,
2013-01-13 12:06:00,39.1,39.0,30.07,SE,144,0.0,3.0,98,0.00,,,0.00,weatherlink.com 1.10,2013-01-13 17:06:00,
2013-01-13 12:21:00,39.2,39.0,30.06,SE,144,0.0,2.0,99,0.00,,,0.00,weatherlink.com 1.10,2013-01-13 17:21:00,
2013-01-13 12:36:00,39.3,39.0,30.05,SE,144,1.0,2.0,99,0.00,,,0.00,weatherlink.com 1.10,2013-01-13 17:36:00,
2013-01-13 12:51:00,39.4,39.0,30.05,SSW,203,3.0,3.0,98,0.00,,,0.00,weatherlink.com 1.10,2013-01-13 17:51:00,
2013-01-13 13:06:00,39.5,39.0,30.05,SSW,202,1.0,2.0,98,0.00,,,0.00,weatherlink.com 1.10,2013-01-13 18:06:00,
2013-01-13 13:21:00,39.6,39.0,30.04,South,182,2.0,4.0,98,0.00,,,0.00,weatherlink.com 1.10,2013-01-13 18:21:00,
2013-01-13 13:36:00,39.6,39.0,30.03,South,174,1.0,2.0,98,0.00,,,0.00,weatherlink.com 1.10,2013-01-13 18:36:00,
2013-01-13 13:51:00,39.9,40.0,30.03,South,175,0.0,3.0,99,0.00,,,0.00,weatherlink.com 1.10,2013-01-13 18:51:00,
2013-01-13 14:06:00,40.0,40.0,30.03,South,175,0.0,2.0,98,0.00,,,0.00,weatherlink.com 1.10,2013-01-13 19:06:00,
2013-01-13 14:22:00,40.1,40.0,30.02,South,175,1.0,2.0,98,0.00,,,0.00,weatherlink.com 1.10,2013-01-13 19:22:00,
2013-01-13 14:37:00,40.4,40.0,30.03,South,175,0.0,2.0,99,0.00,,,0.00,weatherlink.com 1.10,2013-01-13 19:37:00,
2013-01-13 14:52:00,40.4,40.0,30.02,South,175,0.0,1.0,99,0.00,,,0.00,weatherlink.com 1.10,2013-01-13 19:52:00,
2013-01-13 15:07:00,40.2,40.0,30.01,South,175,0.0,2.0,98,0.00,,,0.00,weatherlink.com 1.10,2013-01-13 20:07:00,
2013-01-13 15:22:00,40.0,40.0,30.01,South,175,0.0,2.0,98,0.00,,,0.00,weatherlink.com 1.10,2013-01-13 20:22:00,
2013-01-13 15:37:00,39.6,39.0,30.00,South,175,0.0,2.0,99,0.00,,,0.00,weatherlink.com 1.10,2013-01-13 20:37:00,
2013-01-13 15:52:00,39.6,39.0,30.00,South,175,0.0,1.0,98,0.00,,,0.00,weatherlink.com 1.10,2013-01-13 20:52:00,
2013-01-13 16:06:00,39.8,40.0,29.99,South,175,0.0,2.0,99,0.00,,,0.00,weatherlink.com 1.10,2013-01-13 21:06:00,
2013-01-13 16:21:00,40.0,40.0,29.99,South,175,0.0,1.0,99,0.00,,,0.00,weatherlink.com 1.10,2013-01-13 21:21:00,
2013-01-13 16:36:00,40.3,40.0,29.98,South,175,0.0,1.0,99,0.00,,,0.00,weatherlink.com 1.10,2013-01-13 21:36:00,
2013-01-13 16:51:00,40.3,40.0,29.98,South,175,0.0,0.0,99,0.00,,,0.00,weatherlink.com 1.10,2013-01-13 21:51:00,
2013-01-13 17:06:00,40.7,41.0,29.96,South,173,0.0,3.0,99,0.00,,,0.00,weatherlink.com 1.10,2013-01-13 22:06:00,
2013-01-13 17:21:00,40.2,40.0,29.98,West,263,2.0,3.0,99,0.00,,,0.00,weatherlink.com 1.10,2013-01-13 22:21:00,
2013-01-13 17:36:00,39.6,39.0,29.99,NW,321,1.0,3.0,99,0.00,,,0.00,weatherlink.com 1.10,2013-01-13 22:36:00,
2013-01-13 18:07:00,40.0,40.0,29.99,NW,321,0.0,0.0,99,0.00,,,0.00,weatherlink.com 1.10,2013-01-13 23:07:00,
2013-01-13 18:22:00,39.8,40.0,29.98,NW,321,0.0,1.0,99,0.00,,,0.00,weatherlink.com 1.10,2013-01-13 23:22:00,
2013-01-13 18:37:00,39.6,39.0,29.98,NW,321,0.0,1.0,99,0.00,,,0.00,weatherlink.com 1.10,2013-01-13 23:37:00,
2013-01-13 18:52:00,40.1,40.0,29.98,NW,321,0.0,0.0,99,0.00,,,0.00,weatherlink.com 1.10,2013-01-13 23:52:00,
2013-01-13 19:07:00,40.2,40.0,29.98,NW,321,0.0,1.0,99,0.00,,,0.00,weatherlink.com 1.10,2013-01-14 00:07:00,
2013-01-13 19:22:00,40.9,41.0,29.97,NW,321,0.0,1.0,99,0.00,,,0.00,weatherlink.com 1.10,2013-01-14 00:22:00,
2013-01-13 19:37:00,40.8,41.0,29.98,NW,321,0.0,2.0,99,0.00,,,0.00,weatherlink.com 1.10,2013-01-14 00:37:00,
2013-01-13 19:52:00,40.0,40.0,29.98,NW,321,2.0,3.0,99,0.00,,,0.00,weatherlink.com 1.10,2013-01-14 00:52:00,
2013-01-13 20:07:00,40.0,40.0,29.98,NW,321,2.0,3.0,99,0.00,,,0.00,weatherlink.com 1.10,2013-01-14 01:07:00,
2013-01-13 20:22:00,42.2,42.0,29.98,NW,325,1.0,4.0,99,0.00,,,0.00,weatherlink.com 1.10,2013-01-14 01:22:00,
2013-01-13 20:37:00,43.3,43.0,29.97,NW,325,1.0,3.0,99,0.00,,,0.00,weatherlink.com 1.10,2013-01-14 01:37:00,
2013-01-13 20:52:00,44.7,45.0,29.96,NW,318,2.0,4.0,99,0.00,,,0.00,weatherlink.com 1.10,2013-01-14 01:52:00,
2013-01-13 21:07:00,44.2,44.0,29.95,NW,304,1.0,4.0,99,0.00,,,0.00,weatherlink.com 1.10,2013-01-14 02:07:00,
2013-01-13 21:22:00,43.0,43.0,29.95,NW,306,0.0,2.0,99,0.00,,,0.00,weatherlink.com 1.10,2013-01-14 02:22:00,
2013-01-13 21:37:00,40.9,41.0,29.95,NNW,331,1.0,2.0,99,0.00,,,0.00,weatherlink.com 1.10,2013-01-14 02:37:00,
2013-01-13 21:52:00,39.7,40.0,29.95,NNW,332,0.0,2.0,99,0.00,,,0.00,weatherlink.com 1.10,2013-01-14 02:52:00,
2013-01-13 22:08:00,39.8,40.0,29.96,NNW,332,0.0,1.0,99,0.00,,,0.00,weatherlink.com 1.10,2013-01-14 03:08:00,
2013-01-13 22:38:00,41.0,41.0,29.96,NNW,332,0.0,0.0,99,0.00,,,0.00,weatherlink.com 1.10,2013-01-14 03:38:00,
2013-01-13 22:53:00,41.3,41.0,29.95,NNW,332,0.0,0.0,99,0.00,,,0.00,weatherlink.com 1.10,2013-01-14 03:53:00,
2013-01-13 23:08:00,41.3,41.0,29.95,NNW,332,0.0,0.0,99,0.00,,,0.00,weatherlink.com 1.10,2013-01-14 04:08:00,
2013-01-13 23:23:00,41.8,42.0,29.95,NNW,332,0.0,1.0,99,0.00,,,0.00,weatherlink.com 1.10,2013-01-14 04:23:00,
2013-01-13 23:38:00,41.4,41.0,29.95,NNW,332,0.0,1.0,99,0.00,,,0.00,weatherlink.com 1.10,2013-01-14 04:38:00,
2013-01-13 23:53:00,40.5,40.0,29.95,NNW,332,0.0,2.0,99,0.00,,,0.00,weatherlink.com 1.10,2013-01-14 04:53:00,